When you browse on this site, cookies collect data to enhance your experience and personalize the content and advertising you see.
Visit our Privacy Policy to learn more. By continuing to use the site, you agree to this use of cookies and data.
  • In Romania
  • List of Countries
  • For 7 days
  • Water Temperature
  • Satellite Maps
  • Weather Map
  • Weather Widgets
  • user-avatar
    Login

    Hourly Weather Mendoza

    Today, 22 January, Tuesday

    Time Temperature Precipitation Wind Pressure Humidity
    00:00 +29°C° 0 mm 1 mps 697 mmHg 46%
    01:00 +28°C° 0 mm 1 mps 697 mmHg 50%
    02:00 +28°C° 0 mm 1 mps 696 mmHg 53%
    03:00 +27°C° 0 mm 1 mps 696 mmHg 56%
    04:00 +24°C° 0 mm 0 mps 696 mmHg 58%
    05:00 +28°C° 0 mm 1 mps 696 mmHg 54%
    06:00 +29°C° 0 mm 1 mps 697 mmHg 49%
    07:00 +30°C° 0 mm 1 mps 697 mmHg 45%
    08:00 +31°C° 0 mm 2 mps 697 mmHg 42%
    09:00 +32°C° 0 mm 2 mps 697 mmHg 39%
    10:00 +35°C° 0 mm 3 mps 697 mmHg 36%
    11:00 +36°C° 0 mm 3 mps 697 mmHg 33%
    12:00 +37°C° 0 mm 3 mps 697 mmHg 31%
    13:00 +38°C° 0 mm 3 mps 697 mmHg 29%
    14:00 +38°C° 0 mm 4 mps 696 mmHg 29%
    15:00 +38°C° 0 mm 4 mps 696 mmHg 28%
    16:00 +40°C° 0 mm 4 mps 696 mmHg 27%
    17:00 +38°C° 0 mm 3 mps 696 mmHg 29%
    18:00 +37°C° 0 mm 3 mps 697 mmHg 31%
    19:00 +36°C° 0 mm 2 mps 697 mmHg 32%
    20:00 +35°C° 0.2 mm 2 mps 698 mmHg 36%
    21:00 +33°C° 0.2 mm 1 mps 698 mmHg 39%
    22:00 +32°C° 0.2 mm 1 mps 699 mmHg 43%
    23:00 +31°C° 0.4 mm 2 mps 698 mmHg 46%

    Tomorrow, 23 January, Wednesday

    Time Temperature Precipitation Wind Pressure Humidity
    00:00 +30°C° 0.4 mm 4 mps 698 mmHg 48%
    01:00 +28°C° 0.4 mm 6 mps 698 mmHg 51%
    02:00 +28°C° 0 mm 6 mps 698 mmHg 49%
    03:00 +27°C° 0 mm 5 mps 698 mmHg 47%
    04:00 +27°C° 0 mm 5 mps 698 mmHg 45%
    05:00 +27°C° 0 mm 5 mps 699 mmHg 39%
    06:00 +28°C° 0 mm 6 mps 699 mmHg 34%
    07:00 +28°C° 0 mm 6 mps 699 mmHg 29%
    08:00 +30°C° 0 mm 5 mps 699 mmHg 29%
    09:00 +32°C° 0 mm 5 mps 699 mmHg 28%
    10:00 +34°C° 0 mm 5 mps 699 mmHg 28%
    11:00 +35°C° 0 mm 4 mps 699 mmHg 27%
    12:00 +36°C° 0 mm 4 mps 698 mmHg 26%
    13:00 +37°C° 0 mm 4 mps 698 mmHg 25%
    14:00 +37°C° 0 mm 4 mps 697 mmHg 25%
    15:00 +37°C° 0 mm 3 mps 697 mmHg 25%
    16:00 +37°C° 0 mm 3 mps 697 mmHg 25%
    17:00 +37°C° 0 mm 2 mps 697 mmHg 27%
    18:00 +36°C° 0 mm 2 mps 697 mmHg 28%
    19:00 +34°C° 0 mm 1 mps 697 mmHg 30%
    20:00 +34°C° 0 mm 2 mps 697 mmHg 31%
    21:00 +34°C° 0 mm 2 mps 698 mmHg 33%
    22:00 +32°C° 0 mm 2 mps 698 mmHg 34%
    23:00 +32°C° 0 mm 2 mps 697 mmHg 35%

    Day after tomorrow, 24 January, Thursday

    Time Temperature Precipitation Wind Pressure Humidity
    00:00 +31°C° 0 mm 2 mps 697 mmHg 35%
    01:00 +30°C° 0 mm 2 mps 697 mmHg 36%
    02:00 +30°C° 0 mm 2 mps 696 mmHg 37%
    03:00 +29°C° 0 mm 2 mps 696 mmHg 38%
    04:00 +29°C° 0 mm 1 mps 696 mmHg 39%
    05:00 +30°C° 0 mm 1 mps 696 mmHg 39%
    06:00 +31°C° 0 mm 1 mps 696 mmHg 40%
    07:00 +32°C° 0 mm 1 mps 697 mmHg 40%
    08:00 +34°C° 0 mm 2 mps 697 mmHg 38%
    09:00 +36°C° 0 mm 3 mps 697 mmHg 36%
    10:00 +37°C° 0 mm 4 mps 696 mmHg 34%
    11:00 +38°C° 0 mm 4 mps 696 mmHg 33%
    12:00 +40°C° 0 mm 4 mps 695 mmHg 32%
    13:00 +41°C° 0 mm 4 mps 695 mmHg 31%
    14:00 +41°C° 0.1 mm 4 mps 695 mmHg 30%
    15:00 +40°C° 0.1 mm 3 mps 694 mmHg 30%
    16:00 +42°C° 0.1 mm 3 mps 694 mmHg 29%
    17:00 +40°C° 0 mm 2 mps 694 mmHg 30%
    18:00 +39°C° 0 mm 2 mps 695 mmHg 32%
    19:00 +37°C° 0 mm 1 mps 695 mmHg 33%
    20:00 +36°C° 0 mm 1 mps 695 mmHg 35%
    21:00 +36°C° 0 mm 1 mps 695 mmHg 36%
    22:00 +35°C° 0 mm 1 mps 696 mmHg 38%
    23:00 +35°C° 0.3 mm 2 mps 695 mmHg 42%

    25 January, Friday

    Time Temperature Precipitation Wind Pressure Humidity
    00:00 +34°C° 0.3 mm 2 mps 695 mmHg 45%
    01:00 +34°C° 0.3 mm 3 mps 694 mmHg 49%
    02:00 +33°C° 0 mm 3 mps 694 mmHg 51%
    03:00 +33°C° 0 mm 3 mps 694 mmHg 53%
    04:00 +31°C° 0 mm 3 mps 694 mmHg 55%
    05:00 +32°C° 0.2 mm 5 mps 695 mmHg 55%
    06:00 +32°C° 0.2 mm 7 mps 695 mmHg 56%
    07:00 +32°C° 0.2 mm 8 mps 696 mmHg 57%
    08:00 +34°C° 0 mm 8 mps 696 mmHg 53%
    09:00 +35°C° 0 mm 7 mps 696 mmHg 48%
    10:00 +36°C° 0 mm 6 mps 696 mmHg 44%
    11:00 +38°C° 0.1 mm 6 mps 696 mmHg 40%
    12:00 +39°C° 0.1 mm 6 mps 696 mmHg 37%
    13:00 +40°C° 0.1 mm 5 mps 696 mmHg 34%
    14:00 +40°C° 0.3 mm 5 mps 696 mmHg 33%
    15:00 +40°C° 0.3 mm 5 mps 696 mmHg 32%
    16:00 +41°C° 0.3 mm 5 mps 696 mmHg 32%
    17:00 +40°C° 0.5 mm 4 mps 696 mmHg 34%
    18:00 +38°C° 0.5 mm 4 mps 697 mmHg 37%
    19:00 +37°C° 0.5 mm 3 mps 697 mmHg 40%
    20:00 +36°C° 1.2 mm 3 mps 697 mmHg 45%
    21:00 +34°C° 1.2 mm 4 mps 697 mmHg 50%
    22:00 +33°C° 1.2 mm 4 mps 698 mmHg 56%
    23:00 +32°C° 1.5 mm 4 mps 697 mmHg 58%

    26 January, Saturday

    Time Temperature Precipitation Wind Pressure Humidity
    00:00 +32°C° 1.5 mm 5 mps 697 mmHg 60%
    01:00 +30°C° 1.5 mm 5 mps 697 mmHg 63%
    02:00 +29°C° 0.7 mm 6 mps 697 mmHg 64%
    03:00 +29°C° 0.7 mm 6 mps 697 mmHg 66%
    04:00 +28°C° 0.7 mm 6 mps 697 mmHg 67%
    05:00 +28°C° 0.8 mm 7 mps 698 mmHg 65%
    06:00 +28°C° 0.8 mm 8 mps 699 mmHg 63%
    07:00 +28°C° 0.8 mm 8 mps 699 mmHg 62%
    08:00 +28°C° 0.1 mm 7 mps 699 mmHg 54%
    09:00 +29°C° 0.1 mm 6 mps 699 mmHg 47%
    10:00 +30°C° 0.1 mm 5 mps 699 mmHg 40%
    11:00 +33°C° 0 mm 4 mps 699 mmHg 37%
    12:00 +34°C° 0 mm 4 mps 698 mmHg 33%
    13:00 +36°C° 0 mm 3 mps 698 mmHg 30%
    14:00 +36°C° 0 mm 3 mps 698 mmHg 29%
    15:00 +36°C° 0 mm 4 mps 697 mmHg 29%
    16:00 +36°C° 0 mm 4 mps 697 mmHg 28%
    17:00 +35°C° 0 mm 3 mps 697 mmHg 31%
    18:00 +34°C° 0 mm 2 mps 697 mmHg 34%
    19:00 +32°C° 0 mm 1 mps 697 mmHg 37%
    20:00 +32°C° 0 mm 1 mps 697 mmHg 40%
    21:00 +31°C° 0 mm 1 mps 697 mmHg 42%
    22:00 +30°C° 0 mm 1 mps 698 mmHg 45%
    23:00 +30°C° 0 mm 1 mps 697 mmHg 51%

    27 January, Sunday

    Time Temperature Precipitation Wind Pressure Humidity
    00:00 +29°C° 0 mm 1 mps 696 mmHg 58%
    01:00 +28°C° 0 mm 1 mps 696 mmHg 64%
    02:00 +28°C° 0 mm 1 mps 696 mmHg 67%
    03:00 +28°C° 0 mm 1 mps 696 mmHg 69%
    04:00 +27°C° 0 mm 2 mps 696 mmHg 72%
    05:00 +28°C° 0 mm 2 mps 696 mmHg 67%
    06:00 +29°C° 0 mm 2 mps 696 mmHg 62%
    07:00 +30°C° 0 mm 2 mps 697 mmHg 57%
    08:00 +31°C° 0 mm 2 mps 697 mmHg 53%
    09:00 +34°C° 0 mm 2 mps 697 mmHg 48%
    10:00 +35°C° 0 mm 2 mps 696 mmHg 44%
    11:00 +36°C° 0 mm 3 mps 696 mmHg 40%
    12:00 +37°C° 0 mm 3 mps 696 mmHg 37%
    13:00 +38°C° 0 mm 3 mps 695 mmHg 34%
    14:00 +39°C° 0 mm 3 mps 695 mmHg 32%
    15:00 +39°C° 0 mm 3 mps 695 mmHg 31%
    16:00 +39°C° 0 mm 3 mps 695 mmHg 29%
    17:00 +38°C° 0 mm 2 mps 695 mmHg 31%
    18:00 +36°C° 0 mm 1 mps 696 mmHg 33%
    19:00 +35°C° 0 mm 1 mps 696 mmHg 35%
    20:00 +36°C° 0.2 mm 2 mps 697 mmHg 39%
    21:00 +35°C° 0.2 mm 3 mps 697 mmHg 43%
    22:00 +34°C° 0.2 mm 3 mps 697 mmHg 47%
    23:00 +34°C° 1 mm 4 mps 697 mmHg 51%
    Show more